STARLINK-34017, 64339

Orbit data source: Space-Track

STARLINK-34017, 64339 is a payload satellite owned by SpaceX/Seattle (US) in LEO that was launched on Tue, 10 Jun 2025 UTC via an FALCON 9 launch vehicle from the Air Force Eastern Test Range (AFETR). Payload-class satellites include a variety of spacecraft equipped with specific instruments for various scientific and technological missions. These include communications satellites like Starlink; space stations such as the ISS; scientific satellites like the Hubble; Earth observation satellites from companies like Planet Labs, Umbra, and HawkEye 360; GPS; miniature CubeSats for education and research; and military/defense satellites.

Loading next visibility...
Identifier
64339, 2025-124Y
Orbit
LEO
Last TLE update
10 hours ago
Origin
Manufacturer
SpaceX/Seattle
Mission
Operational spacecraft
Bus & Motor
STARLINK V2MO, Unknown motor
Mass
575 kg wet, ~530 kg dry
Launch date (UTC)
2025-06-10 (3 weeks ago)
Launch vehicle
FALCON 9
Launch site
Air Force Eastern Test Range (AFETR)
Object type
Payload
Rocket body
Debris
Shape & HBR
Unknown
Radar Cross Section
Large (>1 m²)

Expand to show TLE details & history

TLE from 10 hours ago
0 STARLINK-34017
1 64339U 25124Y   25182.16668981  .00085848  00000-0  14565-2 0  9998
2 64339  43.0001 107.1276 0001634 279.1186 171.2324 15.50513944  4480
Epoch: 2025-07-01T04:00Z
TLE epoch observation values (Epoch: 2025-07-01T04:00:01.999Z)
Latitude
43.15876°
Longitude
-141.86248°
Altitude
419.456 km
Speed
7.665 km/s
True Right ascension
13h 10m 26s
True Declination
42° 58' 43"
Sunlit
Object was in daylight at epoch
Visualization orbit readout
Latitude
-33.68413°
Longitude
-9.46069°
Altitude
423.738 km
Speed
7.658 km/s
Apparent Right ascension
18h 19m 22s
Apparent Declination
-58° 36' 05"
Sunlit
Object is in full shadow
Visualization observer readout
Local Sidereal Time
01:32:37
Azimuth
221.984° SW
Elevation
-42.32°
Doppler factor
1
Orbital elements
Apogee altitude
418.299 km
Perigee altitude
416.079 km
Semi-major axis
6,795.326 km
Eccentricity
0.00016
Inclination
43.0001°
RAAN
107.1276°
Arg. of periapsis
279.1186°
True anomaly
Unknown
Mean anomaly
171.2324°
Eccentric anomaly
Unknown
Mean motion
3.87461 °/min
Orbital period
92.91 mins
BSTAR
0.0014565
Loading maneuver chart data...
Loading SW <> Apogee altitude chart data...
Loading historical data...
Loading historical data...
Loading historical data...
Loading historical data...
Loading historical data...
Loading historical data...
Loading historical data...

STARLINK-34017 Visibility forecast

Observer location: undefined°, undefined°

Span
Click to sort rows by Start time (UTC) header in descending order
Start Az.
Max El. time (UTC)
Max El. Az.
Max El.
End time (UTC)
End Az.
5 mins2025-07-01 22:22:36.933Z217.623° SW2025-07-01 22:25:36.933Z132.334° SE30.47°2025-07-01 22:27:36.933Z87.651° E
5 mins2025-07-02 00:00:36.933Z272.998° WNW2025-07-02 00:02:36.933Z355.922° N41.089°2025-07-02 00:05:36.933Z69.306° E
4 mins2025-07-02 01:38:36.933Z301.39° NW2025-07-02 01:40:36.933Z34.201° NE36.076°2025-07-02 01:42:36.933Z78.971° E
5 mins2025-07-02 03:15:36.933Z279.919° WNW2025-07-02 03:17:36.933Z212.591° SW41.608°2025-07-02 03:20:36.933Z122.741° SE
|